Date String (YYYY-MM-DD hh:mm:ss) UTC,Instrument flags,Ambient pressure (hPa),Sample flow (lpm),Bypass flow (lpm),Sample temperature (°C),Ambient temperature (°C),ASC tube jacket temperature (°C),LED temperature (°C),Box temperature (°C),Sample RH (%),Span deviation,Mass concentration (μg/m³),Mass concentration (μg/m³),Mass concentration (μg/m³)
DateTimeUTC,F1_M11,P_M11,Q1_M11,Q2_M11,T1_M11,T2_M11,T3_M11,T4_M11,T5_M11,U1_M11,ZSPAN_M11,X0_M11,X2_M11,X1_M11
2022-04-30 04:00:00,,0822.5,5.00,0.00,23.1,22.0,00.0,32.2,24.8,12.7,0000.0,0008.57,0001.95,0001.13
2022-04-30 04:01:00,,0822.6,4.99,0.00,23.1,22.1,00.0,32.2,24.8,12.7,0000.0,0007.79,0001.91,0001.12
2022-04-30 04:02:00,,0822.5,5.00,0.00,23.1,22.0,00.0,32.2,24.7,12.7,0000.0,0007.60,0001.86,0001.11
2022-04-30 04:03:00,,0822.5,5.01,0.00,23.1,22.0,00.0,32.2,24.8,12.8,0000.0,0007.26,0001.84,0001.11
2022-04-30 04:04:00,,0822.6,5.00,0.00,23.1,22.0,00.0,32.2,24.8,12.8,0000.0,0005.85,0001.84,0001.11
2022-04-30 04:05:00,,0822.5,4.99,0.00,23.1,22.0,00.0,32.2,24.8,12.8,0000.0,0005.79,0001.86,0001.11
2022-04-30 04:06:00,,0822.6,5.01,0.00,23.1,22.0,00.0,32.2,24.8,12.9,0000.0,0005.76,0001.85,0001.11
2022-04-30 04:07:00,,0822.7,4.99,0.00,23.1,22.0,00.0,32.1,24.7,13.0,0000.0,0005.81,0001.80,0001.10
2022-04-30 04:08:00,,0822.7,5.00,0.00,23.0,22.0,00.0,32.1,24.7,13.0,0000.0,0006.03,0001.87,0001.10
2022-04-30 04:09:00,,0822.6,5.00,0.00,23.0,22.0,00.0,32.1,24.6,13.0,0000.0,0005.08,0001.92,0001.10
2022-04-30 04:10:00,,0822.7,5.02,0.00,23.0,22.0,00.0,32.1,24.7,12.9,0000.0,0005.67,0001.93,0001.10
2022-04-30 04:11:00,,0822.7,5.01,0.00,23.0,22.0,00.0,32.1,24.7,12.9,0000.0,0005.47,0001.87,0001.08
2022-04-30 04:12:00,,0822.7,4.99,0.00,23.0,21.9,00.0,32.1,24.6,13.0,0000.0,0005.17,0001.91,0001.09
2022-04-30 04:13:00,,0822.7,4.99,0.00,22.9,21.9,00.0,32.1,24.6,12.9,0000.0,0005.68,0001.92,0001.08
2022-04-30 04:14:00,,0822.7,5.01,0.00,22.9,21.9,00.0,32.1,24.7,13.0,0000.0,0006.48,0001.97,0001.07
2022-04-30 04:15:00,,0822.7,5.00,0.00,22.9,21.9,00.0,32.1,24.7,12.9,0000.0,0006.49,0001.94,0001.07
2022-04-30 04:16:00,,0822.7,4.99,0.00,22.9,21.9,00.0,32.0,24.6,12.9,0000.0,0006.60,0001.96,0001.06
2022-04-30 04:17:00,,0822.6,5.01,0.00,22.9,21.9,00.0,32.0,24.7,12.8,0000.0,0006.58,0001.93,0001.05
2022-04-30 04:18:00,,0822.6,5.00,0.00,22.9,21.9,00.0,32.0,24.7,12.9,0000.0,0006.70,0001.99,0001.04
2022-04-30 04:19:00,,0822.7,5.00,0.00,22.9,21.9,00.0,32.0,24.7,12.9,0000.0,0007.34,0001.98,0001.04
2022-04-30 04:20:00,,0822.8,5.01,0.00,22.9,21.9,00.0,32.0,24.7,12.9,0000.0,0007.70,0002.00,0001.04
2022-04-30 04:21:00,,0822.7,5.01,0.00,22.9,21.9,00.0,32.0,24.6,12.9,0000.0,0007.46,0002.00,0001.04
2022-04-30 04:22:00,,0822.6,5.00,0.00,22.9,21.9,00.0,32.0,24.6,12.7,0000.0,0007.53,0002.05,0001.04
2022-04-30 04:23:00,,0822.9,5.00,0.00,22.9,21.9,00.0,31.9,24.6,12.6,0000.0,0007.45,0002.01,0001.03
2022-04-30 04:24:00,,0823.0,5.00,0.00,22.9,21.8,00.0,31.9,24.4,12.7,0000.0,0007.48,0002.01,0001.03
2022-04-30 04:25:00,,0823.0,5.01,0.00,22.8,21.8,00.0,31.9,24.4,12.7,0000.0,0007.51,0002.02,0001.02
2022-04-30 04:26:00,,0823.0,5.00,0.00,22.8,21.7,00.0,31.9,24.4,12.6,0000.0,0007.47,0002.00,0001.01
2022-04-30 04:27:00,,0823.1,4.99,0.00,22.8,21.7,00.0,31.9,24.4,12.7,0000.0,0007.51,0001.97,0000.99
2022-04-30 04:28:00,,0823.1,5.02,0.00,22.8,21.7,00.0,31.9,24.4,12.6,0000.0,0007.71,0001.98,0000.99
2022-04-30 04:29:00,,0823.1,4.99,0.00,22.8,21.8,00.0,31.9,24.4,12.5,0000.0,0007.62,0001.94,0000.98
2022-04-30 04:30:00,,0823.1,4.99,0.00,22.8,21.8,00.0,31.9,24.4,12.6,0000.0,0007.06,0001.93,0000.98
2022-04-30 04:31:00,,0823.1,5.01,0.00,22.8,21.8,00.0,31.9,24.5,12.5,0000.0,0006.61,0001.93,0000.98
2022-04-30 04:32:00,,0823.2,5.00,0.00,22.8,21.8,00.0,31.9,24.4,12.5,0000.0,0006.03,0001.90,0000.98
2022-04-30 04:33:00,,0823.2,5.01,0.00,22.8,21.8,00.0,31.9,24.4,12.5,0000.0,0006.95,0001.91,0000.97
2022-04-30 04:34:00,,0823.2,4.99,0.00,22.8,21.8,00.0,31.9,24.5,12.6,0000.0,0007.03,0001.94,0000.97
2022-04-30 04:35:00,,0823.3,4.99,0.00,22.9,21.8,00.0,31.9,24.6,12.5,0000.0,0007.09,0001.93,0000.97
2022-04-30 04:36:00,,0823.3,5.01,0.00,22.9,21.9,00.0,31.9,24.6,12.5,0000.0,0005.87,0001.86,0000.97
2022-04-30 04:37:00,,0823.3,5.00,0.00,22.9,21.9,00.0,31.9,24.6,12.5,0000.0,0006.01,0001.84,0000.97
2022-04-30 04:38:00,,0823.2,4.99,0.00,22.9,21.9,00.0,31.9,24.7,12.6,0000.0,0006.65,0001.85,0000.98
2022-04-30 04:39:00,,0823.2,5.01,0.00,22.9,21.9,00.0,31.9,24.7,12.5,0000.0,0006.05,0001.80,0000.99
2022-04-30 04:40:00,,0823.2,5.01,0.00,22.9,22.0,00.0,31.9,24.6,12.5,0000.0,0006.28,0001.79,0001.01
2022-04-30 04:41:00,,0823.4,4.99,0.00,22.9,22.0,00.0,31.9,24.7,12.6,0000.0,0007.03,0001.77,0001.01
2022-04-30 04:42:00,,0823.3,4.99,0.00,22.9,22.0,00.0,31.9,24.8,12.7,0000.0,0007.39,0001.81,0001.01
2022-04-30 04:43:00,,0823.3,5.00,0.00,22.9,22.1,00.0,31.9,24.8,12.7,0000.0,0007.67,0001.81,0001.02
2022-04-30 04:44:00,,0823.4,5.00,0.00,23.0,22.1,00.0,31.9,24.8,12.6,0000.0,0007.18,0001.78,0001.03
2022-04-30 04:45:00,,0823.4,5.00,0.00,23.0,22.1,00.0,31.9,24.9,12.6,0000.0,0007.01,0001.78,0001.05
2022-04-30 04:46:00,,0823.4,5.00,0.00,23.0,22.2,00.0,31.9,24.8,12.6,0000.0,0006.70,0001.85,0001.06
2022-04-30 04:47:00,,0823.4,4.99,0.00,23.0,22.2,00.0,31.9,24.9,12.6,0000.0,0007.12,0001.95,0001.06
2022-04-30 04:48:00,,0823.4,5.01,0.00,23.1,22.2,00.0,32.0,24.9,12.6,0000.0,0007.23,0002.05,0001.08
2022-04-30 04:49:00,,0823.5,5.00,0.00,23.1,22.3,00.0,32.0,24.9,12.6,0000.0,0006.77,0002.13,0001.10
2022-04-30 04:50:00,,0823.4,5.00,0.00,23.1,22.3,00.0,32.0,24.9,12.6,0000.0,0006.97,0002.22,0001.12
2022-04-30 04:51:00,,0823.5,4.99,0.00,23.1,22.3,00.0,32.0,25.0,12.6,0000.0,0006.63,0002.21,0001.12
2022-04-30 04:52:00,,0823.6,4.99,0.00,23.1,22.3,00.0,32.0,25.0,12.6,0000.0,0005.93,0002.19,0001.12
2022-04-30 04:53:00,,0823.6,5.00,0.00,23.2,22.4,00.0,32.0,25.0,12.6,0000.0,0005.76,0002.14,0001.12
2022-04-30 04:54:00,,0823.6,5.01,0.00,23.2,22.4,00.0,32.0,25.0,12.6,0000.0,0005.42,0002.16,0001.12
2022-04-30 04:55:00,,0823.5,5.00,0.00,23.2,22.4,00.0,32.0,25.0,12.6,0000.0,0005.61,0002.19,0001.12
2022-04-30 04:56:00,,0823.5,4.99,0.00,23.2,22.4,00.0,32.1,25.0,12.5,0000.0,0005.81,0002.16,0001.11
2022-04-30 04:57:00,,0823.6,5.00,0.00,23.2,22.5,00.0,32.1,25.1,12.5,0000.0,0005.35,0002.07,0001.10
2022-04-30 04:58:00,,0823.6,5.00,0.00,23.2,22.5,00.0,32.1,25.1,12.5,0000.0,0005.27,0001.95,0001.09
2022-04-30 04:59:00,,0823.6,5.01,0.00,23.3,22.5,00.0,32.1,25.1,12.5,0000.0,0005.51,0001.90,0001.08
